FW8288 Weather Reports


Display with metric or nautical units.
time (UTC)temp
F
wind
direction
speed
MPH
gust
MPH
rain 1hr
in
rain 24hr
in
rain mn
in
humidity
%
barometer
mb
20260902234618 92 167 0.0 9.0 0.00 0.00 0.00 55 1012.3
20260902233103 93 167 2.0 6.0 0.00 0.00 0.00 53 1012.5
20260902231613 94 167 2.0 8.0 0.00 0.00 0.00 53 1012.2
20260902230107 94 167 1.0 8.0 0.00 0.00 0.00 53 1012.2
20260902224612 94 167 2.0 6.0 0.00 0.00 0.00 54 1012.2
20260902223102 95 167 2.0 8.0 0.00 0.00 0.00 53 1012.2
20260902221606 96 167 1.0 6.0 0.00 0.00 0.00 52 1012.2
20260902220107 96 166 0.0 5.0 0.00 0.00 0.00 50 1012.1
20260902214603 97 167 2.0 6.0 0.00 0.00 0.00 47 1012.2
20260902213114 98 167 1.0 6.0 0.00 0.00 0.00 48 1012.4
20260902211605 98 167 2.0 5.0 0.00 0.00 0.00 48 1012.6
20260902204600 98 167 3.0 6.0 0.00 0.00 0.00 45 1012.8
20260902203108 98 167 3.0 6.0 0.00 0.00 0.00 45 1012.9
20260902201610 98 0 2.0 6.0 0.00 0.00 0.00 46 1013.0
20260902200135 98 167 2.0 5.0 0.00 0.00 0.00 47 1013.3
20260902194609 99 167 2.0 9.0 0.00 0.00 0.00 46 1013.6
20260902193101 99 167 2.0 7.0 0.00 0.00 0.00 47 1013.7
20260902191609 99 167 1.0 7.0 0.00 0.00 0.00 47 1013.9
20260902190114 98 168 4.0 10.0 0.00 0.00 0.00 47 1014.1
20260902184603 98 167 1.0 6.0 0.00 0.00 0.00 48 1014.3
20260902183109 97 167 3.0 8.0 0.00 0.00 0.00 50 1014.6
20260902181600 97 167 3.0 7.0 0.00 0.00 0.00 50 1014.8
20260902180133 97 169 3.0 10.0 0.00 0.00 0.00 52 1015.1
20260902174600 95 167 2.0 7.0 0.00 0.00 0.00 55 1015.3
20260902173103 94 167 2.0 8.0 0.00 0.00 0.00 58 1015.7
20260902171608 92 167 1.0 9.0 0.00 0.00 0.00 60 1015.9
20260902164604 89 167 2.0 7.0 0.00 0.00 0.00 68 1016.2
20260902163103 88 167 3.0 9.0 0.00 0.00 0.00 70 1016.5
20260902161606 88 166 2.0 8.0 0.00 0.00 0.00 71 1016.4
20260902160112 87 167 1.0 7.0 0.00 0.00 0.00 74 1016.5
20260902154605 86 166 2.0 9.0 0.00 0.00 0.00 76 1016.5
20260902153113 85 165 1.0 7.0 0.00 0.00 0.00 79 1016.3
20260902151601 84 166 1.0 6.0 0.00 0.00 0.00 82 1016.3
20260902150104 83 166 1.0 5.0 0.00 0.00 0.00 84 1016.3
20260902144618 82 166 1.0 5.0 0.00 0.00 0.00 86 1016.3
20260902143105 82 166 0.0 5.0 0.00 0.00 0.00 87 1016.3
20260902141610 82 166 0.0 3.0 0.00 0.00 0.00 87 1016.2
20260902140104 81 0 0.0 3.0 0.00 0.00 0.00 88 1016.3
20260902134559 80 166 1.0 3.0 0.00 0.00 0.00 89 1016.3
20260902133128 80 0 0.0 2.0 0.00 0.00 0.00 90 1016.1
20260902131608 79 0 0.0 0.0 0.00 0.00 0.00 91 1016.1
20260902130103 79 0 0.0 1.0 0.00 0.00 0.00 91 1015.8
20260902124603 79 166 0.0 3.0 0.00 0.00 0.00 91 1015.6
20260902123103 79 166 0.0 1.0 0.00 0.00 0.00 91 1015.2
20260902121606 79 166 0.0 2.0 0.00 0.00 0.00 90 1014.9
20260902114603 79 0 0.0 2.0 0.00 0.00 0.00 90 1015.0
20260902113114 79 0 0.0 2.0 0.00 0.00 0.00 90 1015.0
20260902111603 79 0 0.0 0.0 0.00 0.00 0.00 90 1014.9
20260902110100 79 0 0.0 0.0 0.00 0.00 0.00 89 1014.9
20260902104601 79 0 0.0 2.0 0.00 0.00 0.00 89 1014.9
20260902103100 79 0 0.0 1.0 0.00 0.00 0.00 89 1014.9
20260902101623 79 166 0.0 2.0 0.00 0.00 0.00 88 1014.7
20260902100059 80 0 0.0 3.0 0.00 0.00 0.00 88 1014.6
20260902094600 80 166 0.0 1.0 0.00 0.00 0.00 87 1014.8
20260902093104 80 166 0.0 1.0 0.00 0.00 0.00 87 1014.9
20260902091607 80 0 0.0 0.0 0.00 0.00 0.00 87 1014.8
20260902090128 80 166 0.0 4.0 0.00 0.00 0.00 86 1014.7
20260902084605 80 0 0.0 4.0 0.00 0.00 0.00 86 1014.6
20260902083117 80 166 0.0 4.0 0.00 0.00 0.00 85 1014.7
20260902081605 80 0 0.0 3.0 0.00 0.00 0.00 85 1014.8
20260902080110 80 0 0.0 2.0 0.00 0.00 0.00 84 1014.7
20260902074600 81 0 0.0 0.0 0.00 0.00 0.00 84 1014.8
20260902073101 81 0 0.0 0.0 0.00 0.00 0.00 84 1014.8
20260902071602 81 0 0.0 0.0 0.00 0.00 0.00 83 1015.0
20260902070107 81 0 0.0 3.0 0.00 0.00 0.00 83 1014.8
20260902064607 81 0 0.0 2.0 0.00 0.00 0.00 82 1014.8
20260902063100 81 166 0.0 2.0 0.00 0.00 0.00 81 1014.6
20260902061624 81 0 0.0 1.0 0.00 0.00 0.00 80 1014.6
20260902060104 81 0 0.0 0.0 0.00 0.00 0.00 80 1014.7
20260902054605 81 0 0.0 0.0 0.00 0.00 0.00 80 1015.0
20260902053105 81 0 0.0 0.0 0.00 0.00 0.00 82 1015.0
20260902051605 81 0 0.0 0.0 0.00 0.00 0.00 82 1014.9
20260902050107 81 0 0.0 0.0 0.00 0.00 0.00 82 1014.9
20260902044606 81 0 0.0 0.0 0.00 0.00 0.00 81 1015.0
20260902043103 81 0 0.0 0.0 0.00 0.00 0.00 81 1014.9
20260902041609 81 0 0.0 0.0 0.00 0.00 0.00 82 1014.9
20260902040106 81 0 0.0 0.0 0.00 0.00 0.00 80 1015.1
20260902034603 81 0 0.0 0.0 0.00 0.00 0.00 80 1015.2
20260902033114 81 0 0.0 0.0 0.00 0.00 0.00 79 1015.2
20260902031606 82 0 0.0 0.0 0.00 0.00 0.00 78 1015.1
20260902030116 82 0 0.0 0.0 0.00 0.00 0.00 78 1014.8
20260902024604 82 0 0.0 0.0 0.00 0.00 0.00 78 1014.5
20260902023114 82 0 0.0 0.0 0.00 0.00 0.00 77 1014.4
20260902021619 82 0 0.0 0.0 0.00 0.00 0.00 77 1014.3
20260902020104 82 0 0.0 0.0 0.00 0.00 0.00 77 1014.0
20260902014603 82 0 0.0 0.0 0.00 0.00 0.00 75 1013.9
20260902013104 83 0 0.0 0.0 0.00 0.00 0.00 74 1013.5
20260902011602 83 0 0.0 0.0 0.00 0.00 0.00 73 1013.6
20260902010115 84 0 0.0 0.0 0.00 0.00 0.00 73 1013.7
20260902004607 84 166 0.0 2.0 0.00 0.00 0.00 72 1013.8
20260902003104 84 0 0.0 2.0 0.00 0.00 0.00 72 1013.8
20260902001610 85 166 1.0 3.0 0.00 0.00 0.00 74 1013.6
20260902000114 85 166 2.0 4.0 0.00 0.00 0.00 73 1013.6